Location: Mahannah Oil Field
(37.4664°N, 96.6003°W)
Time: 02:07:43
(UTC+00:00)

deb Explorer IX - Pass Details

Date: 28 January 2021
Orbit: 537 x 1102 km, 38.8° (Epoch: 01 March)

Event Time Altitude Azimuth Distance (km) Brightness Sun altitude
Rises 21:27:18 0° 230° (SW) 3,904 ? 22.0°
Reaches altitude 10° 21:30:12 10° 226° (SW) 2,938 ? 21.6°
Maximum altitude 21:37:08 50° 153° (SSE) 1,317 ? 20.6°
Drops below altitude 10° 21:43:31 10° 81° (E) 2,711 ? 19.7°
Sets 21:46:05 0° 76° (ENE) 3,581 ? 19.3°
